Terminal Aerodrome Forecast
Issued by NWS Miami, FL

Home | Current Version | Previous Version | Text Only | Print | Product List | Glossary On
Versions: 1 2 3 4 5 6 7 8 9 10 11 12 13 14 15 16 17 18 19 20 21 22 23 24 25 26 27 28 29 30 31 32 33 34 35 36 37 38 39 40 41 42 43 44 45 46 47 48 49 50
000
FTUS42 KMFL 300522
TAFAPF
TAF
KAPF 300522Z 3006/3106 07007KT P6SM FEW040
     FM301400 12010KT P6SM SCT035
     FM302000 17007KT P6SM VCTS SCT030CB BKN050
     FM310000 10005KT P6SM VCSH SCT030 SCT050
     FM310200 08003KT P6SM FEW030=

USA.gov is the U.S. government's official web portal to all federal, state and local government web resources and services.